KJ5MTR Weather Reports


time (UTC)temp
F
wind
direction
speed
knots
gust
knots
rain 1hr
in
rain 24hr
in
rain mn
in
humidity
%
barometer
mb
20260506004535 82 0.0 0.0 0.00 0.00 0.00 77 1005.7
20260506003516 82 0.0 0.0 0.00 0.00 0.00 76 1005.6
20260506002515 82 0.0 0.0 0.00 0.00 0.00 75 1005.7
20260506001535 82 0.0 0.0 0.00 0.00 0.00 75 1005.7
20260506000515 83 0.0 0.9 0.00 0.00 0.00 74 1005.6
20260505235535 83 0.0 1.7 0.00 0.00 0.00 73 1005.6
20260505234515 84 0.0 0.9 0.00 0.00 0.00 73 1005.4
20260505233535 84 0.0 1.7 0.00 0.00 0.00 72 1005.3
20260505232517 84 0.0 5.2 0.00 0.00 0.00 71 1005.2
20260505231535 84 0.0 0.9 0.00 0.00 0.00 71 1005.1
20260505230537 84 0.0 0.9 0.00 0.00 0.00 72 1005.1
20260505225515 84 0.0 1.7 0.00 0.00 0.00 73 1005.1
20260505224517 84 0.0 3.5 0.00 0.00 0.00 71 1005.1
20260505223517 85 0.0 0.9 0.00 0.00 0.00 70 1005.0
20260505222517 85 0.0 1.7 0.00 0.00 0.00 69 1005.0
20260505221517 85 0.0 2.6 0.00 0.00 0.00 70 1005.1
20260505220517 86 0.0 2.6 0.00 0.00 0.00 69 1005.3
20260505215537 86 0.0 1.7 0.00 0.00 0.00 68 1005.4
20260505214517 86 0.0 3.5 0.00 0.00 0.00 68 1005.6
20260505213517 86 0.0 4.3 0.00 0.00 0.00 66 1005.5
20260505212517 86 0.0 6.1 0.00 0.00 0.00 66 1005.8
20260505211517 86 0.0 3.5 0.00 0.00 0.00 67 1006.0
20260505210517 85 225 0.9 5.2 0.00 0.00 0.00 67 1006.0
20260505205517 85 0.0 4.3 0.00 0.00 0.00 68 1006.1
20260505204517 85 0.0 0.9 0.00 0.00 0.00 69 1006.1
20260505203517 85 0.0 1.7 0.00 0.00 0.00 70 1006.3
20260505202517 85 0.0 4.3 0.00 0.00 0.00 70 1006.4
20260505201517 85 225 0.9 7.8 0.00 0.00 0.00 69 1006.6
20260505200517 84 0.0 2.6 0.00 0.00 0.00 72 1006.8
20260505195517 84 0.0 5.2 0.00 0.00 0.00 71 1006.9
20260505194517 83 0.0 4.3 0.00 0.00 0.00 72 1007.1
20260505193517 83 0.0 4.3 0.00 0.00 0.00 72 1007.2
20260505192517 83 0.0 3.5 0.00 0.00 0.00 74 1007.2
20260505191537 83 0.0 2.6 0.00 0.00 0.00 71 1007.4
20260505190517 82 0.0 1.7 0.00 0.00 0.00 73 1007.4
20260505185518 82 0.0 0.0 0.00 0.00 0.00 73 1007.3
20260505184517 81 0.0 4.3 0.00 0.00 0.00 75 1007.6
20260505183517 80 0.0 2.6 0.00 0.00 0.00 76 1007.8
20260505182517 79 0.0 4.3 0.00 0.00 0.00 76 1007.8
20260505181537 79 0.0 1.7 0.00 0.00 0.00 78 1008.0
20260505180517 78 0.0 3.5 0.00 0.00 0.00 78 1008.1
20260505175517 78 0.0 1.7 0.00 0.00 0.00 78 1008.1
20260505174558 78 0.0 3.5 0.00 0.00 0.00 79 1008.1
20260505173517 78 0.0 3.5 0.00 0.00 0.00 78 1008.3
20260505172517 77 0.0 0.9 0.00 0.00 0.00 81 1008.4
20260505171517 77 0.0 7.8 0.00 0.00 0.00 81 1008.3
20260505170517 77 0.0 0.9 0.00 0.00 0.00 81 1008.3
20260505165517 76 0.0 2.6 0.00 0.00 0.00 82 1008.3
20260505164516 76 0.0 1.7 0.00 0.00 0.00 83 1008.3
20260505163517 75 0.0 4.3 0.00 0.00 0.00 84 1008.3
20260505162517 75 0.0 4.3 0.00 0.00 0.00 85 1008.1
20260505161516 74 225 0.9 7.8 0.00 0.00 0.00 87 1008.3
20260505160517 73 0.0 4.3 0.00 0.00 0.00 87 1008.4
20260505152516 73 0.0 6.1 0.00 0.00 0.00 88 1008.4
20260505151520 73 0.0 7.0 0.00 0.00 0.00 88 1008.3
20260505150536 73 0.0 2.6 0.00 0.00 0.00 88 1008.2
20260505140516 72 0.0 4.3 0.00 0.00 0.00 89 1007.9
20260505124536 71 0.0 4.3 0.00 0.00 0.00 90 1007.3
20260505123536 71 0.0 6.1 0.00 0.00 0.00 90 1007.1
20260505122516 71 0.0 3.5 0.00 0.00 0.00 90 1006.9
20260505121516 71 0.0 4.3 0.00 0.00 0.00 90 1006.8
20260505120516 71 0.0 2.6 0.00 0.00 0.00 90 1006.6
20260505115536 71 0.0 0.9 0.00 0.00 0.00 89 1006.6
20260505114516 71 0.0 1.7 0.00 0.00 0.00 89 1006.7
20260505113516 71 0.0 4.3 0.00 0.00 0.00 89 1006.8
20260505112516 71 0.0 4.3 0.00 0.00 0.00 89 1006.5
20260505111516 70 0.0 3.5 0.00 0.00 0.00 89 1006.6
20260505110516 70 225 0.9 5.2 0.00 0.00 0.00 89 1006.9
20260505101516 71 0.0 1.7 0.00 0.00 0.00 88 1007.2
20260505100516 71 0.0 1.7 0.00 0.00 0.00 88 1007.2
20260505095539 71 0.0 0.9 0.00 0.00 0.00 88 1007.0
20260505094516 71 0.0 0.9 0.00 0.00 0.00 87 1007.0
20260505093516 71 0.0 0.0 0.00 0.00 0.00 87 1007.2
20260505092516 71 0.0 4.3 0.00 0.00 0.00 87 1007.0
20260505091516 71 0.0 1.7 0.00 0.00 0.00 87 1007.3
20260505090516 71 0.0 4.3 0.00 0.00 0.00 87 1007.4
20260505085516 71 0.0 1.7 0.00 0.00 0.00 87 1007.2
20260505084516 71 0.0 6.1 0.00 0.00 0.00 88 1007.5
20260505083516 71 0.0 9.6 0.00 0.00 0.00 88 1007.4
20260505082516 71 0.0 5.2 0.00 0.00 0.00 88 1007.7
20260505081516 71 0.0 9.6 0.00 0.00 0.00 88 1007.6
20260505080516 71 0.0 5.2 0.00 0.00 0.00 88 1007.7
20260505075516 71 0.0 1.7 0.00 0.00 0.00 87 1007.7
20260505074536 71 0.0 7.0 0.00 0.00 0.00 87 1007.9
20260505073516 71 0.0 3.5 0.00 0.00 0.00 87 1007.9
20260505072516 71 0.0 6.1 0.00 0.00 0.00 87 1008.2
20260505071516 71 0.0 2.6 0.00 0.00 0.00 87 1008.4
20260505070516 71 225 0.9 7.0 0.00 0.00 0.00 87 1008.4
20260505065516 71 0.0 6.1 0.00 0.00 0.00 87 1008.5
20260505064515 71 0.0 6.1 0.00 0.00 0.00 87 1008.5
20260505063515 71 225 0.9 10.4 0.00 0.00 0.00 87 1008.6
20260505062515 71 0.0 2.6 0.00 0.00 0.00 87 1008.8
20260505061515 71 0.0 6.1 0.00 0.00 0.00 87 1008.9
20260505060535 71 0.0 1.7 0.00 0.00 0.00 86 1008.9
20260505055536 71 0.0 8.7 0.00 0.00 0.00 86 1008.9
20260505054515 71 0.0 2.6 0.00 0.00 0.00 86 1008.8
20260505053515 71 0.0 2.6 0.00 0.00 0.00 86 1008.8
20260505052515 71 0.0 7.0 0.00 0.00 0.00 87 1008.8
20260505051515 71 0.0 5.2 0.00 0.00 0.00 87 1008.8
20260505050536 71 0.0 6.1 0.00 0.00 0.00 87 1008.7
20260505041516 72 0.0 0.0 0.00 0.00 0.00 85 1008.7
20260505040516 72 0.0 0.0 0.00 0.00 0.00 84 1008.7
20260505035516 73 0.0 1.7 0.00 0.00 0.00 83 1008.8
20260505034516 73 0.0 0.9 0.00 0.00 0.00 82 1008.7
20260505033516 74 0.0 1.7 0.00 0.00 0.00 81 1008.6
20260505032515 74 0.0 1.7 0.00 0.00 0.00 81 1008.6
20260505031536 74 0.0 0.9 0.00 0.00 0.00 80 1008.6
20260505030516 74 0.0 3.5 0.00 0.00 0.00 80 1008.7
20260505025516 74 0.0 0.9 0.00 0.00 0.00 79 1008.7
20260505024516 75 0.0 0.9 0.00 0.00 0.00 79 1008.6
20260505023516 75 0.0 0.9 0.00 0.00 0.00 78 1008.5
20260505022536 75 0.0 0.0 0.00 0.00 0.00 77 1008.4
20260505021516 75 0.0 3.5 0.00 0.00 0.00 76 1008.3
20260505020517 76 0.0 1.7 0.00 0.00 0.00 75 1008.3
20260505015516 76 0.0 0.9 0.00 0.00 0.00 74 1008.4
20260505014517 76 0.0 3.5 0.00 0.00 0.00 73 1008.3
20260505013516 76 0.0 0.0 0.00 0.00 0.00 72 1008.3
20260505012516 77 0.0 0.0 0.00 0.00 0.00 70 1008.2
20260505011517 77 0.0 2.6 0.00 0.00 0.00 69 1008.1
20260505010516 78 0.0 7.0 0.00 0.00 0.00 68 1008.1
20260505005516 78 0.0 3.5 0.00 0.00 0.00 67 1008.0